Weather History for International Falls, MN

Change the Weather History Date:

Thursday, November 1, 2012

  Actual Average Record
Temperature  
Mean Temperature 33 °F 34 °F  
Max Temperature 36 °F 43 °F 65 °F (1990)
Min Temperature 29 °F 25 °F 2 °F (1951)
Degree Days  
Heating Degree Days 32 31  
Month to date heating degree days 32 31  
Since 1 July heating degree days 1354 1308  
Cooling Degree Days 0 0  
Month to date cooling degree days 0 0  
Year to date cooling degree days 222 192  
Moisture  
Dew Point 28 °F    
Average Humidity 82    
Maximum Humidity 92    
Minimum Humidity 72    
Precipitation  
Precipitation 0.04 in 0.05 in 0.91 in (2000)
Month to date precipitation 0.04 0.05  
Year to date precipitation 22.98 22.08  
Snow  
Snow 0.20 in 0.20 in 11.60 in (1991)
Month to date snowfall 0.2 0.2  
Since 1 July snowfall 1.9 2.5  
Since 1 September snowfall 1.9 2.5  
Snow Depth 0.00 in    
Sea Level Pressure  
Sea Level Pressure 30.04 in    
Wind  
Wind Speed 11 mph (NW)    
Max Wind Speed 17 mph    
Max Gust Speed 23 mph    
Visibility 9 miles    
Events Snow    
T = Trace of Precipitation, MM = Missing Value Source: NWS Daily Summary

Daily Weather History Graph

Daily Weather History Graph

Search for Another Location

Airport:

Trip Planner

Search our weather history database for the weather conditions in past years. The results will help you decide how hot, cold, wet, or windy it might be!

Date:

Astronomy

Nov. 01, 2012 Rise Set
Actual Time 8:00 AM CDT 5:52 PM CDT
Civil Twilight 7:27 AM CDT 6:25 PM CDT
Nautical Twilight 6:50 AM CDT 7:02 PM CDT
Astronomical Twilight 6:14 AM CDT 7:39 PM CDT
Moon 7:39 PM CDT (11/1) 10:44 AM CDT (11/1)
Length of Visible Light 10h 58m
Length of Day
9h 52m
Waning Gibbous, 93% of the Moon is Illuminated
Nov 1
Waning Gibbous
Nov 6
Last Quarter
Nov 13
New
Nov 20
First Quarter
Nov 28
Full

Hourly Weather History & Observations

Time (CDT) Temp. Windchill Dew Point Humidity Pressure Visibility Wind Dir Wind Speed Gust Speed Precip Events Conditions
12:55 AM 35.1 °F 29.3 °F 32.0 °F 89% 29.98 in 10.0 mi WNW 6.9 mph - N/A   Overcast
1:51 AM 35.6 °F 28.6 °F 33.8 °F 93% 29.94 in 10.0 mi NW 9.2 mph - N/A   Overcast
1:55 AM 36.0 °F 29.0 °F 34.0 °F 93% 29.98 in 10.0 mi WNW 9.2 mph - N/A   Overcast
2:55 AM 36.0 °F 26.7 °F 33.1 °F 89% 29.98 in 10.0 mi NW 15.0 mph 21.9 mph N/A   Overcast
3:45 AM 35.6 °F 27.5 °F 32.0 °F 87% 29.94 in 10.0 mi NW 11.5 mph - N/A   Overcast
3:55 AM 35.1 °F 26.4 °F 30.9 °F 85% 29.98 in 10.0 mi NNW 12.7 mph - N/A   Overcast
4:13 AM 35.6 °F 28.0 °F 32.0 °F 87% 29.94 in 10.0 mi NW 10.4 mph - N/A   Overcast
4:55 AM 34.0 °F 25.0 °F 30.9 °F 89% 29.99 in 10.0 mi NW 12.7 mph - N/A   Overcast
5:05 AM 33.8 °F 25.3 °F 30.2 °F 87% 29.95 in 10.0 mi NW 11.5 mph - N/A   Overcast
5:23 AM 33.8 °F 25.8 °F 30.2 °F 87% 29.96 in 10.0 mi NW 10.4 mph - N/A   Overcast
5:30 AM 33.8 °F 25.3 °F 30.2 °F 87% 29.96 in 10.0 mi NW 11.5 mph 18.4 mph N/A   Overcast
5:55 AM 33.1 °F 26.1 °F 30.9 °F 92% 30.01 in 9.0 mi NW 8.1 mph - N/A   Overcast
6:39 AM 33.8 °F 25.3 °F 30.2 °F 87% 29.97 in 8.0 mi NW 11.5 mph 20.7 mph 0.00 in   Overcast
6:55 AM 33.1 °F 24.4 °F 28.9 °F 85% 30.01 in 10.0 mi NW 11.5 mph - 0.00 in   Overcast
7:55 AM 32.0 °F 22.5 °F 28.0 °F 85% 30.03 in 9.0 mi NW 12.7 mph 20.7 mph 0.00 in   Overcast
8:55 AM 32.0 °F 22.1 °F 28.9 °F 88% 30.05 in 10.0 mi WNW 13.8 mph - N/A   Overcast
9:05 AM 30.2 °F 21.3 °F 28.4 °F 93% 30.00 in 2.0 mi WNW 10.4 mph - 0.00 in Snow Light Snow
9:12 AM 30.2 °F 22.6 °F 28.4 °F 93% 30.00 in 1.5 mi NW 8.1 mph - 0.00 in Snow Light Snow
9:22 AM 30.2 °F 21.3 °F 28.4 °F 93% 30.00 in 2.0 mi NW 10.4 mph - 0.02 in Snow Light Snow
9:37 AM 30.2 °F 21.9 °F 30.2 °F 100% 30.01 in 9.0 mi NW 9.2 mph - 0.04 in Snow Light Snow
9:55 AM 32.0 °F 24.2 °F 28.9 °F 88% 30.06 in 8.0 mi NW 9.2 mph - 0.04 in Snow Light Snow
10:29 AM 30.2 °F 19.8 °F 28.4 °F 93% 30.01 in 1.8 mi NW 13.8 mph - 0.00 in Snow Light Snow
10:36 AM 30.2 °F 21.3 °F 28.4 °F 93% 30.01 in 3.0 mi NW 10.4 mph - 0.00 in Snow Light Snow
10:55 AM 30.9 °F 19.4 °F 27.0 °F 85% 30.07 in 10.0 mi NW 17.3 mph - 0.00 in   Overcast
11:55 AM 32.0 °F 20.8 °F 26.1 °F 79% 30.08 in 10.0 mi NW 17.3 mph 21.9 mph N/A   Overcast
12:55 PM 32.0 °F 22.1 °F 26.1 °F 79% 30.08 in 10.0 mi NW 13.8 mph 20.7 mph N/A   Overcast
1:55 PM 32.0 °F 23.0 °F 26.1 °F 79% 30.07 in 10.0 mi NW 11.5 mph 17.3 mph N/A   Overcast
2:55 PM 32.0 °F 22.5 °F 25.0 °F 75% 30.07 in 10.0 mi North 12.7 mph - N/A   Overcast
3:55 PM 32.0 °F 25.6 °F 25.0 °F 75% 30.09 in 10.0 mi North 6.9 mph 17.3 mph N/A   Overcast
4:55 PM 32.0 °F 24.2 °F 25.0 °F 75% 30.10 in 10.0 mi NW 9.2 mph - N/A   Overcast
5:55 PM 30.9 °F 22.2 °F 25.0 °F 79% 30.12 in 10.0 mi NW 10.4 mph - N/A   Overcast
6:55 PM 30.9 °F 23.5 °F 24.1 °F 76% 30.13 in 10.0 mi NNW 8.1 mph - N/A   Overcast
7:55 PM 30.9 °F 23.5 °F 25.0 °F 79% 30.14 in 10.0 mi NNW 8.1 mph - N/A   Overcast
8:55 PM 30.9 °F 24.3 °F 25.0 °F 79% 30.14 in 10.0 mi North 6.9 mph - N/A   Overcast
9:55 PM 30.0 °F 21.7 °F 25.0 °F 82% 30.15 in 10.0 mi NNW 9.2 mph - N/A   Overcast
10:37 PM 30.2 °F 23.4 °F 24.8 °F 80% 30.11 in 10.0 mi North 6.9 mph - N/A   Overcast
10:55 PM 28.9 °F 20.4 °F 23.0 °F 78% 30.17 in 10.0 mi North 9.2 mph - N/A   Overcast
11:55 PM 28.9 °F 22.8 °F 23.0 °F 78% 30.17 in 10.0 mi NNW 5.8 mph - N/A   Overcast